Location: Banff
(51.1667°N, 115.5667°W)
Time: 08:26:59
(UTC+00:00)

Envisat - Pass Details

Date: 28 November 2022
Orbit: 763 x 765 km, 98.2° (Epoch: 28 January)

Event Time Altitude Azimuth Distance (km) Brightness Sun altitude
Rises 14:05:23 0° 3° (N) 3,248 6.1 -11.2°
Reaches altitude 10° 14:08:46 10° 339° (NNW) 2,316 5.1 -10.7°
Maximum altitude 14:11:19 14° 309° (NW) 2,043 4.6 -10.4°
Enters shadow 14:12:24 13° 295° (WNW) 2,092 4.6 -10.2°
